API VERSION: 1.2 API SOURCE: NASA/JPL Horizons API ******************************************************************************* JPL/HORIZONS 55P/Tempel-Tuttle 2025-Dec-12 17:51:55 Rec #:90000625 (+COV) Soln.date: 2002-Jan-03_16:05:39 # obs: 392 (1865-1998) IAU76/J2000 helio. ecliptic osc. elements (au, days, deg., period=Julian yrs): EPOCH= 2451040.5 ! 1998-Aug-15.0000000 (TDB) RMSW= n.a. EC= .9055527209724122 QR= .9764279154675056 TP= 2450872.5977341123 OM= 235.270989149082 W= 172.5002736828059 IN= 162.4865753794343 A= 10.33833822975773 MA= 4.978339684690188 ADIST= 19.70024854404794 PER= 33.241782758462 N= .029650223 ANGMOM= .023464539 DAN= 18.20692 DDN= .98041 L= 62.4267664 B= 2.2510269 MOID= .00848081 TP= 1998-Feb-28.0977341123 Comet physical (GM= km^3/s^2; RAD= km): GM= n.a. RAD= 1.8 M1= 10. M2= 16. k1= 25. k2= 10. PHCOF= n.a. Comet non-gravitational force model (AMRAT=m^2/kg;A1-A3=au/d^2;DT=days;R0=au): AMRAT= 0. DT= 0. A1= 1.580981463194E-9 A2= 9.186415933073E-11 A3= 0. Standard model: ALN= .1112620426 NK= 4.6142 NM= 2.15 NN= 5.093 R0= 2.808 COMET comments 1: soln ref.= JPL#J985/69, data arc: 1865-12-22 to 1998-07-05 2: k1=25.0, k2=10.0; ******************************************************************************* ******************************************************************************* Ephemeris / API_USER Fri Dec 12 17:51:55 2025 Pasadena, USA / Horizons ******************************************************************************* Target body name: 55P/Tempel-Tuttle {source: JPL#J985/69} Center body name: Earth (399) {source: DE441} Center-site name: GEOCENTRIC ******************************************************************************* Start time : A.D. 1998-Jan-15 00:00:00.0000 UT Stop time : A.D. 1998-Jan-19 00:00:00.0000 UT Step-size : 30 steps ******************************************************************************* Target pole/equ : undefined Target radii : 1.8 km Center geodetic : 0.0, 0.0, -6378.137 {E-lon(deg),Lat(deg),Alt(km)} Center cylindric: 0.0, 0.0, 0.0 {E-lon(deg),Dxy(km),Dz(km)} Center pole/equ : ITRF93 {East-longitude positive} Center radii : 6378.137, 6378.137, 6356.752 km {Equator_a, b, pole_c} Target primary : Sun Vis. interferer : MOON (R_eq= 1737.400) km {source: DE441} Rel. light bend : Sun {source: DE441} Rel. lght bnd GM: 1.3271E+11 km^3/s^2 Small-body perts: Yes {source: SB441-N16} Atmos refraction: NO (AIRLESS) RA format : HMS Time format : CAL Calendar mode : Mixed Julian/Gregorian EOP file : eop.251212.p260310 EOP coverage : DATA-BASED 1962-JAN-20 TO 2025-DEC-12. PREDICTS-> 2026-MAR-09 Units conversion: 1 au= 149597870.700 km, c= 299792.458 km/s, 1 day= 86400.0 s Table cut-offs 1: Elevation (-90.0deg=NO ),Airmass (>38.000=NO), Daylight (NO ) Table cut-offs 2: Solar elongation ( 0.0,180.0=NO ),Local Hour Angle( 0.0=NO ) Table cut-offs 3: RA/DEC angular rate ( 0.0=NO ) ******************************************************************************* Initial IAU76/J2000 heliocentric ecliptic osculating elements (au, days, deg.): EPOCH= 2451040.5 ! 1998-Aug-15.0000000 (TDB) RMSW= n.a. EC= .9055527209724122 QR= .9764279154675056 TP= 2450872.5977341123 OM= 235.270989149082 W= 172.5002736828059 IN= 162.4865753794343 Equivalent ICRF heliocentric cartesian coordinates (au, au/d): X= 1.722008948564083E+00 Y=-1.306804387064573E+00 Z=-1.397143536382815E+00 VX= 8.841891235487663E-04 VY=-1.166410808784401E-02 VZ=-8.029643799443813E-03 Comet physical (GM= km^3/s^2; RAD= km): GM= n.a. RAD= 1.8 M1= 10. M2= 16. k1= 25. k2= 10. PHCOF= n.a. Comet non-gravitational force model (AMRAT=m^2/kg;A1-A3=au/d^2;DT=days;R0=au): AMRAT= 0. DT= 0. A1= 1.580981463194E-9 A2= 9.186415933073E-11 A3= 0. Standard model: ALN= .1112620426 NK= 4.6142 NM= 2.15 NN= 5.093 R0= 2.808 **************************************************************************************************** Date__(UT)__HR:MN:SC.fff r rdot delta deldot S-O-T /r **************************************************************************************************** $$SOE 1998-Jan-15 00:00:00.000 1.209908490314 -15.9020096 0.36782980844180 -16.4684165 119.9382 /L 1998-Jan-15 03:12:00.000 1.208684836028 -15.8768389 0.36659436043734 -15.6154038 119.8597 /L 1998-Jan-15 06:24:00.000 1.207463128414 -15.8515443 0.36542492468481 -14.7541478 119.7708 /L 1998-Jan-15 09:36:00.000 1.206243377044 -15.8261256 0.36432212144487 -13.8850257 119.6713 /L 1998-Jan-15 12:48:00.000 1.205025591515 -15.8005822 0.36328654112478 -13.0084353 119.5614 /L 1998-Jan-15 16:00:00.000 1.203809781458 -15.7749139 0.36231874272948 -12.1247942 119.4408 /L 1998-Jan-15 19:12:00.000 1.202595956529 -15.7491201 0.36141925236369 -11.2345389 119.3096 /L 1998-Jan-15 22:24:00.000 1.201384126413 -15.7232006 0.36058856179361 -10.3381244 119.1678 /L 1998-Jan-16 01:36:00.000 1.200174300826 -15.6971549 0.35982712707685 -9.4360228 119.0153 /L 1998-Jan-16 04:48:00.000 1.198966489508 -15.6709826 0.35913536726895 -8.5287225 118.8523 /L 1998-Jan-16 08:00:00.000 1.197760702232 -15.6446833 0.35851366321448 -7.6167271 118.6787 /L 1998-Jan-16 11:12:00.000 1.196556948795 -15.6182567 0.35796235643062 -6.7005542 118.4947 /L 1998-Jan-16 14:24:00.000 1.195355239024 -15.5917023 0.35748174809030 -5.7807336 118.3003 /L 1998-Jan-16 17:36:00.000 1.194155582775 -15.5650198 0.35707209811175 -4.8578064 118.0956 /L 1998-Jan-16 20:48:00.000 1.192957989929 -15.5382087 0.35673362436065 -3.9323234 117.8807 /T 1998-Jan-17 00:00:00.000 1.191762470397 -15.5112686 0.35646650197017 -3.0048433 117.6559 /T 1998-Jan-17 03:12:00.000 1.190569034116 -15.4841993 0.35627086278371 -2.0759313 117.4212 /T 1998-Jan-17 06:24:00.000 1.189377691053 -15.4570002 0.35614679492431 -1.1461572 117.1768 /T 1998-Jan-17 09:36:00.000 1.188188451201 -15.4296711 0.35609434249351 -0.2160942 116.9230 /T 1998-Jan-17 12:48:00.000 1.187001324579 -15.4022114 0.35611350540210 0.7136834 116.6599 /T 1998-Jan-17 16:00:00.000 1.185816321237 -15.3746209 0.35620423933383 1.6426017 116.3878 /T 1998-Jan-17 19:12:00.000 1.184633451248 -15.3468991 0.35636645584233 2.5700888 116.1069 /T 1998-Jan-17 22:24:00.000 1.183452724717 -15.3190457 0.35660002258076 3.4955767 115.8174 /T 1998-Jan-18 01:36:00.000 1.182274151773 -15.2910602 0.35690476366236 4.4185029 115.5197 /T 1998-Jan-18 04:48:00.000 1.181097742573 -15.2629423 0.35728046014969 5.3383121 115.2139 /T 1998-Jan-18 08:00:00.000 1.179923507302 -15.2346917 0.35772685066890 6.2544576 114.9005 /T 1998-Jan-18 11:12:00.000 1.178751456170 -15.2063078 0.35824363214503 7.1664033 114.5796 /T 1998-Jan-18 14:24:00.000 1.177581599417 -15.1777904 0.35883046065320 8.0736246 114.2515 /T 1998-Jan-18 17:36:00.000 1.176413947308 -15.1491391 0.35948695238004 8.9756102 113.9167 /T 1998-Jan-18 20:48:00.000 1.175248510135 -15.1203535 0.36021268468889 9.8718633 113.5753 /T 1998-Jan-19 00:00:00.000 1.174085298219 -15.0914332 0.36100719728192 10.7619026 113.2277 /T $$EOE **************************************************************************************************** Column meaning: TIME Times PRIOR to 1962 are UT1, a mean-solar time closely related to the prior but now-deprecated GMT. Times AFTER 1962 are in UTC, the current civil or "wall-clock" time-scale. UTC is kept within 0.9 seconds of UT1 using integer leap-seconds for 1972 and later years. Conversion from the internal Barycentric Dynamical Time (TDB) of solar system dynamics to the non-uniform civil UT time-scale requested for output has not been determined for UTC times after the next July or January 1st. Therefore, the last known leap-second is used as a constant over future intervals. Time tags refer to the UT time-scale conversion from TDB on Earth regardless of observer location within the solar system, although clock rates may differ due to the local gravity field and no analog to "UT" may be defined for that location. Any 'b' symbol in the 1st-column denotes a B.C. date. First-column blank (" ") denotes an A.D. date. CALENDAR SYSTEM Mixed calendar mode was active such that calendar dates after AD 1582-Oct-15 (if any) are in the modern Gregorian system. Dates prior to 1582-Oct-5 (if any) are in the Julian calendar system, which is automatically extended for dates prior to its adoption on 45-Jan-1 BC. The Julian calendar is useful for matching historical dates. The Gregorian calendar more accurately corresponds to the Earth's orbital motion and seasons. A "Gregorian-only" calendar mode is available if such physical events are the primary interest. NOTE: "n.a." in output means quantity "not available" at the print-time. 'r rdot' = The Sun's apparent range ("r", light-time aberrated) and range-rate ("rdot") relative to the target center, as seen by the observer. A positive "rdot" means the target center was moving away from the Sun, negative means moving toward the Sun. Units: AU and KM/S 'delta deldot' = Apparent range ("delta", light-time aberrated) and range-rate ("delta-dot") of the target center relative to the observer. A positive "deldot" means the target center is moving away from the observer, negative indicates movement toward the observer. Units: AU and KM/S 'S-O-T /r' = Sun-Observer-Target apparent SOLAR ELONGATION ANGLE seen from the observers' location at print-time. The '/r' column provides a code indicating the targets' apparent position relative to the Sun in the observers' sky, as described below: Case A: For an observing location on the surface of a rotating body, that body rotational sense is considered: /T indicates target TRAILS Sun (evening sky: rises and sets AFTER Sun) /L indicates target LEADS Sun (morning sky: rises and sets BEFORE Sun) Case B: For an observing point that does not have a rotational model (such as a spacecraft), the "leading" and "trailing" condition is defined by the observers' heliocentric ORBITAL motion: * If continuing in the observers' current direction of heliocentric motion would encounter the targets' apparent longitude first, followed by the Sun's, the target LEADS the Sun as seen by the observer. * If the Sun's apparent longitude would be encountered first, followed by the targets', the target TRAILS the Sun. Two other codes can be output: /* indicates observer is Sun-centered (undefined) /? Target is aligned with Sun center (no lead or trail) The S-O-T solar elongation angle is numerically the minimum separation angle of the Sun and target in the sky in any direction. It does NOT indicate the amount of separation in the leading or trailing directions, which would be defined along the equator of a spherical coordinate system. Units: DEGREES Computations by ... Solar System Dynamics Group, Horizons On-Line Ephemeris System 4800 Oak Grove Drive, Jet Propulsion Laboratory Pasadena, CA 91109 USA General site: https://ssd.jpl.nasa.gov/ Mailing list: https://ssd.jpl.nasa.gov/email_list.html System news : https://ssd.jpl.nasa.gov/horizons/news.html User Guide : https://ssd.jpl.nasa.gov/horizons/manual.html Connect : browser https://ssd.jpl.nasa.gov/horizons/app.html#/x API https://ssd-api.jpl.nasa.gov/doc/horizons.html command-line telnet ssd.jpl.nasa.gov 6775 e-mail/batch https://ssd.jpl.nasa.gov/ftp/ssd/horizons_batch.txt scripts https://ssd.jpl.nasa.gov/ftp/ssd/SCRIPTS Author : Jon.D.Giorgini@jpl.nasa.gov ****************************************************************************************************